Home > Weather > Sarajevo > Past weeks

Flag for Bosnia-Herzegovina Past Weather in Sarajevo, Bosnia-Herzegovina — Yesterday and Last 2 Weeks

Now
64 °F

Partly cloudy.


Feels Like: 64 °F
Forecast: 61 / 89 °F
Wind: 1 mph from North

Location: Sarajevo / Butmir

Current Time: Jul 30, 2016 at 4:09:19 AM

Latest Report: Jul 30, 2016 at 3:00 AM


Visibility: N/A

Pressure: 30.07 "Hg (28.27 "Hg at 526m altitude)

Humidity: 100%

Dew Point: 64 °F

Location of SarajevoLocation

Past Weather in Sarajevo — Graph

°F

Sarajevo Temperature Yesterday

Maximum temperature yesterday: 84 °F (at 7:00 PM)
Minimum temperature yesterday: 61 °F (at 6:30 AM)
Average temperature yesterday: 72 °F

High & Low Weather Summary for the Past Weeks

 TemperatureHumidityPressure
High90 °F (Jul 23, 2:30 PM)100% (Jul 15, 9:30 PM)30.21 "Hg (Jul 15, 9:30 PM)
Low52 °F (Jul 20, 5:00 AM)29% (Jul 23, 3:30 PM)29.95 "Hg (Jul 16, 4:00 AM)
Average67 °F77%30.08 "Hg
* Reported Jul 15 3:00 AM — Jul 30 3:00 AM, Sarajevo, Weather by CustomWeather, © 2016

Note: Actual official high and low records may vary slightly from our data, if they occured in-between our weather recording intervals... More about our weather records

Advertising

Sarajevo Weather History for the Previous 24 Hours

Scroll right to see more
 ConditionsComfort  
Time TempWeatherWind HumidityBarometerVisibility
3:00 AM
Sat, Jul 30
64 °FPartly cloudy.1 mph100%30.07 "HgN/A
2:00 AM66 °FPartly cloudy.No wind94%30.07 "HgN/A
1:00 AM68 °FPartly cloudy.1 mph94%30.07 "HgN/A
12:00 AM68 °FPartly cloudy.1 mph94%30.07 "HgN/A
11:00 PM
Fri, Jul 29
70 °FPassing clouds.1 mph94%30.04 "HgN/A
10:30 PM70 °FPassing clouds.2 mph88%30.04 "HgN/A
10:00 PM73 °FPassing clouds.1 mph74%30.04 "HgN/A
9:30 PM73 °FPassing clouds.5 mph78%30.04 "HgN/A
9:00 PM75 °FLight rain. Partly sunny.8 mph74%30.04 "HgN/A
8:30 PM75 °FPartly sunny.7 mph74%30.01 "HgN/A
8:00 PM75 °FScattered clouds.8 mph74%30.01 "HgN/A
7:30 PM75 °FScattered clouds.7 mph74%30.01 "HgN/A
7:00 PM84 °FScattered clouds.7 mph55%30.01 "HgN/A
6:00 PM79 °FScattered clouds.6 mph61%29.98 "HgN/A
5:30 PM82 °FScattered clouds.6 mph55%29.98 "HgN/A
5:00 PM81 °FScattered clouds.5 mph54%29.98 "HgN/A
4:30 PM82 °FScattered clouds.6 mph55%29.98 "HgN/A
4:00 PM81 °FScattered clouds.5 mph51%29.98 "HgN/A
3:30 PM82 °FScattered clouds.5 mph48%30.01 "HgN/A
3:00 PM82 °FScattered clouds.2 mph51%30.01 "HgN/A
2:30 PM82 °FScattered clouds.1 mph48%30.01 "HgN/A
2:00 PM82 °FScattered clouds.2 mph51%30.01 "HgN/A
1:30 PM79 °FScattered clouds.3 mph58%30.01 "HgN/A
1:00 PM77 °FScattered clouds.2 mph61%30.04 "HgN/A
12:30 PM77 °FScattered clouds.2 mph61%30.04 "HgN/A
12:00 PM75 °FScattered clouds.2 mph65%30.04 "HgN/A
11:30 AM73 °FScattered clouds.2 mph65%30.04 "HgN/A
11:00 AM72 °FScattered clouds.2 mph73%30.07 "HgN/A
10:30 AM70 °FScattered clouds.2 mph73%30.07 "HgN/A
10:00 AM70 °FScattered clouds.1 mph73%30.07 "HgN/A
9:30 AM70 °FScattered clouds.1 mph73%30.07 "Hg4 mi
9:00 AM66 °FPartly sunny.2 mph83%30.07 "Hg4 mi
8:30 AM64 °FPartly sunny.2 mph83%30.07 "Hg4 mi
8:00 AM64 °FPartly sunny.3 mph83%30.07 "Hg4 mi
7:30 AM63 °FPartly sunny.3 mph88%30.07 "Hg4 mi
7:00 AM63 °FPartly sunny.2 mph88%30.07 "Hg4 mi
6:30 AM61 °FPassing clouds.5 mph88%30.07 "Hg4 mi
6:00 AM63 °FPassing clouds.2 mph88%30.07 "Hg4 mi
5:30 AM63 °FPassing clouds.1 mph88%30.07 "Hg4 mi
5:00 AM63 °FOvercast.3 mph88%30.07 "HgN/A
4:00 AM63 °FMild.2 mph94%30.07 "Hg5 mi
Weather by CustomWeather, © 2016

See weather overviewHow to use our weather pages